Location: Hernandez
(10.3704°N, 67.2181°W)
Time: 05:30:49
(UTC+00:00)

IGS 5A - Pass Details

Date: 13 April 2024
Orbit: 572 x 575 km, 97.4° (Epoch: 06 April)

Event Time Altitude Azimuth Distance (km) Brightness Sun altitude
Rises 23:09:00 0° 166° (SSE) 2,772 6.6 -7.9°
Reaches altitude 10° 23:11:08 10° 165° (SSE) 1,874 5.8 -8.4°
Maximum altitude 23:15:12 78° 80° (E) 587 3.3 -9.4°
Drops below altitude 10° 23:19:15 10° 352° (N) 1,871 6.3 -10.4°
Sets 23:21:23 0° 351° (N) 2,767 7.2 -10.9°
